Location: Broekland
(52.3610°N, 6.2005°E)
Time: 15:37:11
(UTC+00:00)

ACS3 Solar Sail - Pass Details

Date: 22 January 2026
Orbit: 900 x 968 km, 97.2° (Epoch: 10 February)

Event Time Altitude Azimuth Distance (km) Brightness Sun altitude
Rises 02:44:22 0° 10° (N) 3,645 5.2 -42.7°
Reaches altitude 10° 02:46:53 10° 7° (N) 2,685 4.4 -42.3°
Enters shadow 02:47:01 11° 7° (N) 2,631 4.3 -42.3°
